Wetbulb
53.70 53.68 54.07 54.30 54.50 54.78 55.03 55.55 55.75 56.11 56.27 56.65 56.83 56.82 56.86 56.79 56.69 52.50 48.60 52.36 55.41 59.71 59.08 55.85 53.26 53.18 53.08 51.11 52.54 51.94 44.92 43.34 44.10 43.91 45.86 48.47 47.04 50.39 51.20 49.47 49.40 50.79 49.68 51.10 54.15
53.51 53.64 53.90 54.28 54.48 54.72 54.88 55.11 55.48 55.96 56.33 56.47 56.46 56.64 56.56 56.40 52.36 49.87 53.76 56.48 57.86 58.81 55.19 51.44 50.02 50.89 49.44 48.90 50.12 48.21 45.27 44.64 46.82 47.07 46.06 47.42 47.14 48.39 46.22 47.16 47.54 48.47 50.78 51.52 52.00
53.26 53.51 53.88 54.23 54.81 54.94 55.25 54.97 54.95 55.55 56.19 56.34 56.24 56.45 57.08 54.82 48.43 48.80 54.32 56.47 57.27 57.69 54.26 52.71 51.42 49.55 46.81 48.03 47.81 47.73 44.09 46.61 46.32 46.85 46.47 46.10 45.87 48.09 45.62 44.17 46.88 46.28 47.91 50.44 50.63
53.56 53.28 53.73 54.35 54.73 55.32 55.43 55.42 54.75 55.16 55.84 56.21 56.27 56.56 56.86 52.39 40.79 50.93 54.15 55.43 55.99 56.62 53.16 50.81 49.94 47.01 45.56 44.37 46.60 42.96 45.89 45.45 45.95 46.03 45.26 44.58 46.54 44.76 45.45 46.13 47.70 47.93 48.74 49.70 49.68
53.95 53.62 53.65 54.28 54.69 55.28 55.59 55.61 55.19 54.97 55.61 56.08 56.17 56.73 52.73 46.25 46.32 52.57 53.38 53.68 54.75 53.62 50.88 49.37 48.10 47.42 44.43 44.62 44.75 43.69 44.54 44.74 45.64 44.73 44.46 45.00 43.18 43.60 44.38 47.38 48.60 48.45 48.20 48.64 49.13
54.61 54.12 53.86 54.05 54.41 54.93 55.43 55.75 55.62 55.08 55.33 55.70 55.97 55.71 50.00 42.31 51.62 52.35 51.95 52.42 52.57 51.70 50.28 50.25 48.34 48.50 45.77 44.69 43.70 44.68 44.22 44.50 44.57 44.40 44.04 41.75 43.28 42.67 45.65 47.36 46.94 46.88 46.95 47.94 48.61
55.50 54.79 54.23 54.01 54.03 54.57 54.97 55.67 55.94 55.43 55.22 55.45 55.29 51.41 47.62 47.00 51.96 52.64 52.11 51.73 51.95 51.97 49.48 50.82 50.59 48.07 47.30 44.07 45.53 44.35 41.83 43.54 43.75 43.74 42.84 43.41 42.67 41.90 46.79 46.28 45.62 45.87 46.39 47.32 48.27
56.42 55.69 54.91 54.13 53.98 54.27 54.59 55.48 56.00 55.12 54.80 54.60 53.85 50.43 46.28 50.97 53.32 50.71 52.13 50.97 52.01 52.25 51.59 51.19 50.86 48.22 46.59 46.39 44.22 42.39 42.48 40.57 42.99 43.28 43.62 42.66 40.28 43.72 44.98 45.34 44.99 45.96 47.02 47.37 48.29
56.44 55.65 55.13 54.40 54.29 54.20 54.57 55.71 55.13 53.88 53.87 53.68 49.93 49.00 44.51 51.45 48.32 50.22 51.53 49.70 50.96 51.28 50.76 50.11 49.98 46.68 45.33 43.28 41.93 42.87 39.99 40.80 41.19 42.30 41.90 41.40 41.11 44.00 44.34 44.50 44.60 46.08 46.74 47.14 47.16
56.52 55.79 55.16 54.73 54.36 54.41 55.20 53.80 53.86 51.39 51.17 49.33 48.69 44.87 45.26 44.34 48.17 48.98 50.95 50.43 48.94 49.46 48.45 48.21 46.78 44.19 43.67 41.90 38.97 40.72 39.56 40.09 38.91 40.51 40.56 40.08 40.56 44.51 46.39 44.97 44.71 45.29 45.84 46.24 46.03
56.74 56.13 55.48 54.88 53.99 54.02 54.14 51.36 47.90 46.26 47.07 45.56 44.42 43.61 43.83 46.96 48.75 47.34 49.23 48.19 48.46 46.88 42.57 45.13 41.67 39.83 43.10 43.35 41.77 40.26 38.81 38.80 41.65 40.06 37.33 40.50 41.56 43.67 45.35 44.08 43.43 44.24 44.50 45.20 45.54
56.96 56.46 55.86 55.18 54.14 53.74 52.51 46.75 46.56 47.67 42.88 46.84 44.48 44.31 45.95 47.69 43.03 45.28 48.63 44.74 44.03 40.64 42.73 41.01 38.44 41.81 41.41 40.49 39.67 38.92 38.20 39.21 40.92 38.30 37.65 40.49 39.29 43.32 41.62 42.48 43.06 43.52 44.05 44.94 45.58
56.94 56.38 55.91 55.35 53.85 52.11 50.32 48.20 51.59 50.42 42.75 42.91 44.12 43.93 44.36 46.17 43.10 43.68 46.77 44.78 41.52 40.16 40.57 40.28 39.93 40.40 39.44 38.46 37.63 38.64 37.84 38.21 35.93 39.09 40.74 38.33 41.80 39.43 40.99 42.04 42.92 43.49 44.75 45.15 45.71
57.11 56.41 55.71 54.84 49.49 50.66 47.27 49.73 51.35 50.57 40.26 40.87 39.63 42.95 44.27 45.97 41.53 45.04 46.81 44.50 41.32 39.08 40.42 40.01 40.29 38.36 37.91 37.78 38.44 36.52 37.64 36.61 35.77 36.78 35.92 38.75 35.09 41.69 40.18 41.00 41.83 43.04 44.51 45.21 45.48
57.06 56.58 55.72 54.12 49.04 46.58 48.51 50.81 50.80 49.15 29.89 41.02 37.91 45.06 44.33 42.28 41.03 40.58 45.09 43.33 40.11 38.77 39.48 37.82 36.51 36.19 36.53 37.73 38.25 36.60 37.81 36.43 35.88 35.40 34.10 36.20 33.34 40.60 38.34 38.97 39.96 41.44 43.30 44.38 45.76
55.24 56.37 55.50 51.57 50.44 50.05 50.95 50.28 49.66 36.10 28.11 34.32 38.53 38.18 38.23 39.49 39.29 41.05 42.22 43.99 42.74 38.98 38.97 36.78 38.95 38.31 37.78 37.45 37.62 38.62 36.43 35.63 35.82 35.10 33.00 35.11 32.67 40.03 39.09 40.06 40.33 41.04 42.04 43.77 44.73
53.39 55.66 53.73 51.60 46.77 50.39 50.83 48.28 32.92 30.44 36.33 34.05 34.46 37.48 38.08 36.35 37.07 38.88 37.49 36.37 36.70 33.57 34.84 34.48 35.53 36.96 38.29 36.05 37.40 36.16 35.00 33.79 33.73 31.86 34.69 32.66 30.89 39.31 40.91 40.70 41.39 41.17 42.28 43.50 44.50
53.01 53.98 52.96 51.82 49.24 49.30 48.64 38.45 27.27 34.49 37.29 36.53 36.33 36.69 34.57 36.31 36.74 36.84 36.11 34.98 38.75 37.09 36.07 34.26 33.29 34.14 37.61 36.56 36.82 34.89 35.78 38.66 33.59 32.81 34.21 30.24 31.19 40.25 41.59 42.02 42.06 41.93 42.62 43.26 43.64
52.49 53.79 51.51 49.35 50.12 48.70 41.82 29.69 32.12 37.38 37.64 35.99 35.58 33.27 33.19 34.79 35.76 35.66 35.62 36.07 39.40 37.56 37.58 35.96 34.20 34.23 35.03 36.30 35.94 33.90 32.25 34.96 31.44 23.99 29.84 36.68 38.90 41.99 41.45 39.92 40.52 41.11 42.20 42.98 43.76
50.29 48.90 47.65 49.40 49.81 45.57 34.97 32.60 34.92 38.98 38.06 37.82 34.73 36.65 32.29 32.86 32.50 33.36 34.84 39.55 38.38 39.01 41.21 39.56 33.14 30.88 32.84 35.62 35.07 33.87 35.00 32.40 34.38 31.33 29.89 36.51 35.03 38.11 38.23 39.15 41.66 41.42 41.98 43.23 43.47
49.42 44.37 48.09 49.41 49.09 40.29 31.29 33.53 37.28 40.47 39.34 36.77 37.46 35.75 37.02 33.63 34.21 32.54 35.38 38.47 40.02 38.46 40.74 37.48 41.34 29.12 31.53 31.45 31.89 30.57 31.44 31.67 34.69 32.37 34.07 32.36 36.97 43.65 41.09 41.39 43.46 43.47 43.33 43.13 42.81
47.35 34.97 47.64 48.89 34.56 31.90 32.05 36.31 40.67 39.88 40.06 37.41 37.20 37.05 37.11 37.28 33.96 33.81 33.89 37.06 39.26 37.92 34.82 39.69 38.14 30.20 33.50 32.05 33.47 32.52 34.32 34.92 36.74 31.57 29.87 29.92 34.77 42.22 42.15 41.30 41.18 43.03 41.76 42.31 42.65
42.02 42.64 45.54 45.72 31.73 31.26 35.17 37.80 39.62 38.84 38.53 37.91 37.04 38.29 38.98 36.15 33.48 36.03 37.35 35.70 37.15 36.75 36.30 37.11 36.62 30.26 31.31 31.69 30.74 29.65 32.39 34.21 33.84 35.81 29.61 33.31 38.45 41.38 41.36 40.81 42.06 41.74 43.14 42.52 42.70
41.63 32.95 38.22 38.42 36.90 35.50 33.54 33.98 34.73 40.46 38.88 39.09 38.82 39.87 36.93 34.71 36.84 35.08 35.36 34.96 35.32 34.87 37.55 38.72 34.58 34.93 34.73 37.27 34.87 28.05 30.85 33.28 35.15 34.35 34.03 33.93 39.36 42.66 39.73 39.80 43.48 43.90 43.57 43.78 44.92
40.76 33.32 35.44 31.56 31.98 34.67 36.46 36.28 34.28 33.42 38.72 39.15 36.31 36.82 36.33 32.71 33.48 33.13 34.36 33.43 34.42 35.84 34.64 35.32 33.05 32.08 31.30 29.87 32.55 34.25 30.98 30.66 30.17 36.01 35.51 38.37 33.12 40.20 42.40 42.31 38.55 43.30 44.41 42.08 35.78
35.60 33.62 35.71 34.11 37.53 34.32 34.45 33.53 34.93 36.31 36.00 35.20 34.54 36.88 37.47 34.29 35.12 34.35 33.49 32.78 34.10 33.09 33.43 34.87 32.02 31.30 30.17 28.55 29.01 29.89 32.48 31.09 31.42 31.70 31.14 32.29 32.41 41.76 44.45 45.19 41.66 39.79 39.93 41.01 42.67
42.15 41.72 38.02 35.53 35.14 33.67 32.76 34.15 34.94 37.38 38.69 39.70 37.82 36.01 35.01 37.22 39.84 38.84 38.85 38.68 39.86 34.77 32.88 32.62 32.18 31.76 32.44 26.63 30.87 29.21 29.83 30.80 32.39 34.06 35.16 31.55 40.39 43.30 42.39 42.40 43.29 44.72 45.08 43.44 43.92
MSLP
1018.08 1017.98 1017.74 1017.65 1017.52 1017.09 1016.85 1016.92 1016.69 1016.57 1016.38 1016.27 1016.16 1015.98 1015.58 1015.21 1015.00 1014.87 1014.01 1014.33 1014.23 1014.35 1014.27 1013.26 1012.61 1012.13 1011.95 1011.61 1011.45 1010.68 1009.04 1007.63 1007.68 1008.37 1008.68 1010.33 1010.69 1011.06 1011.47 1011.15 1011.49 1011.53 1011.52 1012.05 1012.89
1017.93 1018.01 1017.70 1017.63 1017.47 1017.13 1016.77 1016.69 1016.72 1016.60 1016.47 1016.20 1015.98 1015.84 1015.66 1015.09 1014.60 1014.26 1014.37 1014.42 1014.28 1014.22 1013.76 1012.89 1012.23 1011.79 1011.39 1011.49 1011.27 1010.74 1009.36 1008.37 1009.27 1009.44 1009.80 1010.39 1011.05 1010.83 1011.50 1011.02 1010.96 1011.31 1011.64 1012.49 1013.29
1017.76 1018.06 1017.80 1017.50 1017.51 1017.08 1016.79 1016.60 1016.58 1016.56 1016.42 1016.23 1015.91 1015.56 1015.69 1015.32 1014.24 1013.65 1014.45 1014.33 1014.06 1014.09 1013.67 1013.13 1012.52 1011.95 1011.36 1011.40 1011.21 1010.60 1009.93 1010.31 1010.36 1011.00 1011.38 1011.22 1011.48 1011.48 1011.25 1010.55 1010.19 1010.40 1010.76 1011.59 1012.83
1017.87 1017.92 1017.79 1017.68 1017.40 1017.12 1016.61 1016.70 1016.51 1016.40 1016.28 1016.20 1015.91 1015.51 1015.27 1015.30 1014.03 1013.68 1014.24 1014.33 1013.92 1013.78 1013.47 1012.94 1012.44 1011.82 1011.41 1011.19 1011.56 1011.19 1010.87 1011.21 1011.50 1012.25 1012.17 1011.75 1011.79 1011.55 1010.98 1010.39 1010.87 1011.10 1011.27 1011.75 1012.46
1017.72 1017.86 1017.82 1017.66 1017.37 1017.16 1016.71 1016.55 1016.40 1016.27 1016.26 1016.15 1015.75 1015.53 1015.19 1014.74 1013.51 1013.47 1013.93 1014.03 1013.78 1013.53 1013.23 1012.75 1012.22 1011.66 1011.30 1011.44 1011.89 1011.47 1011.08 1011.71 1012.06 1012.68 1012.64 1012.27 1011.86 1011.60 1010.44 1010.23 1010.54 1011.23 1011.92 1012.08 1012.28
1017.53 1017.62 1017.67 1017.55 1017.27 1017.04 1016.82 1016.50 1016.37 1016.23 1016.13 1015.91 1015.73 1015.51 1014.95 1014.51 1013.81 1013.53 1013.65 1013.91 1013.66 1013.21 1012.93 1012.80 1012.11 1012.02 1011.68 1011.77 1012.00 1011.93 1011.67 1011.59 1012.02 1012.52 1012.59 1012.39 1011.35 1011.62 1009.83 1010.03 1010.21 1010.84 1011.33 1011.81 1012.06
1017.11 1017.46 1017.51 1017.45 1017.16 1016.93 1016.79 1016.53 1016.26 1016.14 1015.98 1015.87 1015.80 1015.10 1014.54 1013.83 1013.82 1013.62 1013.59 1013.72 1013.84 1013.30 1012.78 1012.92 1012.67 1012.50 1012.20 1012.04 1012.38 1012.15 1011.50 1011.11 1011.40 1012.17 1012.24 1012.37 1010.34 1009.82 1009.60 1010.14 1010.10 1010.52 1010.85 1011.25 1011.65
1016.74 1016.98 1017.31 1017.28 1017.04 1016.89 1016.71 1016.34 1016.12 1015.89 1015.93 1015.57 1015.68 1015.10 1013.77 1013.68 1013.81 1013.85 1013.62 1013.44 1013.76 1013.56 1013.19 1013.26 1013.02 1012.88 1012.51 1012.73 1012.04 1011.70 1011.16 1010.47 1011.17 1011.93 1012.18 1012.14 1009.17 1008.86 1009.52 1009.68 1009.60 1009.83 1010.10 1010.68 1011.13
1016.35 1016.67 1016.90 1016.97 1016.92 1016.76 1016.55 1016.10 1015.84 1015.77 1015.83 1015.41 1015.44 1014.96 1013.60 1013.96 1013.89 1014.02 1013.73 1013.20 1013.50 1013.50 1013.49 1013.44 1013.05 1012.89 1013.01 1012.10 1011.14 1010.76 1009.59 1009.82 1010.59 1011.69 1011.92 1011.52 1009.05 1008.72 1009.24 1009.40 1009.11 1008.99 1009.34 1009.71 1010.24
1016.27 1016.49 1016.40 1016.54 1016.75 1016.62 1016.44 1015.73 1015.62 1015.55 1015.47 1015.15 1015.04 1015.18 1013.83 1013.63 1013.63 1014.05 1013.86 1013.49 1013.41 1013.46 1013.33 1013.17 1012.81 1012.30 1012.09 1011.58 1010.18 1009.54 1009.38 1009.42 1010.26 1011.30 1011.43 1010.64 1008.76 1008.14 1007.92 1008.24 1008.40 1008.60 1008.73 1009.02 1009.68
1015.96 1016.13 1016.26 1016.33 1016.23 1016.53 1016.36 1015.44 1015.58 1015.26 1014.85 1013.45 1013.39 1013.52 1013.50 1014.01 1013.78 1014.02 1013.95 1013.49 1013.25 1013.22 1012.75 1012.98 1012.54 1011.62 1010.95 1011.10 1010.93 1010.47 1010.14 1009.89 1009.97 1011.12 1011.01 1009.74 1008.30 1007.48 1007.35 1007.83 1008.15 1008.14 1008.30 1008.62 1009.41
1015.52 1015.82 1016.00 1016.22 1016.29 1016.35 1016.39 1015.30 1014.76 1015.08 1013.82 1013.06 1013.35 1013.53 1013.47 1013.74 1013.55 1013.82 1014.22 1013.53 1013.05 1012.66 1012.93 1013.18 1012.19 1012.10 1012.21 1012.21 1011.90 1011.37 1010.69 1010.42 1010.66 1011.47 1011.12 1009.42 1007.86 1007.06 1007.45 1007.94 1008.32 1008.38 1008.31 1008.77 1009.42
1014.97 1015.44 1015.81 1016.03 1016.28 1016.27 1015.72 1015.14 1015.03 1014.77 1014.03 1012.87 1012.93 1012.90 1013.13 1013.56 1013.04 1013.28 1013.75 1013.31 1012.85 1012.74 1012.87 1012.62 1013.07 1013.26 1013.04 1013.02 1012.55 1012.26 1011.65 1011.59 1012.03 1011.60 1010.72 1010.01 1007.00 1006.97 1007.46 1007.90 1008.33 1008.69 1008.72 1009.02 1009.43
1014.32 1014.89 1015.52 1015.89 1016.74 1015.58 1015.55 1015.25 1015.32 1015.09 1014.12 1012.51 1012.71 1012.56 1013.02 1013.05 1013.22 1013.49 1013.73 1013.39 1013.23 1012.87 1013.16 1013.41 1013.93 1013.92 1013.93 1013.62 1013.31 1013.21 1013.29 1013.02 1012.96 1012.24 1011.20 1010.64 1008.14 1006.22 1006.76 1007.07 1007.88 1008.35 1008.64 1008.89 1009.51
1013.98 1014.35 1014.94 1015.41 1015.61 1015.54 1015.57 1015.34 1015.34 1015.36 1014.47 1012.11 1012.82 1013.35 1012.93 1012.89 1013.18 1013.77 1014.07 1013.68 1013.30 1013.25 1013.74 1013.92 1014.50 1014.62 1014.79 1014.51 1014.30 1014.40 1014.60 1013.86 1014.00 1012.88 1012.31 1010.67 1009.72 1006.03 1006.58 1006.47 1007.03 1007.77 1008.35 1008.83 1009.27
1013.64 1013.86 1014.37 1015.53 1015.79 1015.53 1015.31 1015.42 1015.38 1015.84 1013.35 1012.35 1012.70 1012.82 1012.78 1012.91 1013.15 1013.69 1013.82 1013.90 1014.03 1013.93 1014.15 1014.82 1015.38 1015.36 1015.46 1015.75 1015.54 1015.31 1015.16 1014.51 1014.20 1013.44 1012.29 1010.69 1009.86 1005.96 1005.47 1005.48 1006.40 1007.46 1008.17 1008.70 1009.35
1014.04 1013.82 1014.35 1014.77 1015.35 1015.16 1015.48 1015.64 1016.12 1014.91 1012.57 1012.31 1012.24 1012.54 1012.23 1012.51 1012.90 1012.78 1013.24 1013.33 1013.00 1013.85 1014.29 1015.08 1015.44 1016.13 1016.19 1016.06 1016.24 1015.98 1015.17 1014.66 1014.28 1013.37 1011.89 1011.02 1009.92 1006.14 1005.68 1005.90 1006.20 1007.06 1007.81 1008.60 1009.25
1014.56 1014.06 1014.29 1014.35 1014.92 1015.24 1015.77 1016.28 1015.61 1012.52 1012.20 1012.25 1012.15 1012.30 1012.21 1012.18 1012.30 1012.61 1012.51 1012.42 1012.34 1012.43 1013.40 1014.11 1015.57 1016.10 1016.33 1016.07 1015.61 1015.67 1014.86 1013.98 1013.94 1013.41 1011.73 1010.98 1008.50 1005.80 1005.95 1006.17 1006.63 1007.25 1007.77 1008.51 1009.08
1014.19 1014.08 1014.18 1014.76 1014.71 1015.45 1016.23 1016.19 1013.36 1011.90 1011.61 1011.69 1012.20 1011.87 1011.96 1011.97 1011.87 1012.13 1011.72 1011.20 1010.78 1011.66 1012.17 1013.21 1015.05 1016.59 1016.96 1016.88 1016.43 1016.08 1015.47 1014.51 1013.85 1014.48 1012.36 1009.02 1007.10 1005.66 1005.97 1006.27 1006.61 1007.21 1007.76 1008.23 1008.74
1014.46 1014.21 1014.14 1014.29 1014.88 1015.59 1016.36 1014.66 1012.85 1011.70 1011.54 1011.31 1011.32 1010.92 1010.78 1011.15 1011.57 1011.45 1010.88 1009.45 1009.82 1010.01 1011.12 1011.95 1014.56 1016.79 1017.35 1017.52 1016.96 1016.33 1015.43 1014.72 1014.01 1013.36 1011.80 1008.77 1007.30 1005.79 1005.72 1005.70 1006.11 1006.73 1007.32 1007.94 1008.61
1014.51 1014.24 1014.20 1014.27 1015.03 1015.42 1015.00 1013.94 1012.59 1011.69 1011.39 1011.33 1010.97 1010.63 1010.04 1010.28 1010.50 1010.42 1009.76 1009.06 1009.32 1010.03 1010.62 1012.14 1013.15 1017.11 1017.39 1016.95 1015.93 1016.34 1015.18 1014.45 1013.75 1013.01 1011.88 1010.05 1006.97 1005.60 1005.45 1005.46 1005.92 1006.44 1007.20 1007.90 1008.70
1014.24 1014.32 1014.39 1014.43 1015.34 1015.20 1014.12 1013.11 1012.44 1011.31 1011.60 1011.54 1011.18 1010.63 1009.97 1009.85 1009.95 1010.12 1009.56 1009.31 1009.55 1010.27 1010.78 1011.69 1012.91 1015.09 1015.86 1016.27 1016.14 1015.54 1014.08 1013.36 1012.78 1013.14 1012.59 1011.31 1007.88 1006.14 1006.15 1006.49 1006.81 1007.01 1007.77 1008.44 1009.06
1014.09 1014.12 1014.69 1014.57 1014.52 1014.69 1014.00 1012.81 1012.29 1011.32 1010.92 1011.28 1010.75 1010.37 1010.21 1010.03 1010.13 1009.47 1009.54 1010.29 1010.35 1010.66 1010.77 1011.28 1012.09 1014.29 1015.47 1016.26 1016.21 1015.35 1013.92 1013.01 1012.63 1012.17 1012.10 1011.09 1008.01 1006.82 1006.86 1007.32 1007.49 1007.71 1008.08 1008.78 1009.44
1014.22 1014.31 1014.57 1014.46 1014.00 1013.81 1013.65 1012.95 1012.18 1011.62 1010.95 1011.11 1010.83 1010.48 1010.77 1010.39 1010.30 1010.27 1010.49 1011.02 1011.31 1011.41 1011.44 1011.35 1011.32 1011.95 1012.25 1012.03 1012.10 1013.76 1012.87 1012.75 1012.27 1012.19 1011.20 1009.84 1008.18 1007.52 1007.52 1007.50 1007.80 1008.09 1008.61 1009.31 1009.78
1013.74 1013.27 1013.24 1013.34 1013.18 1013.20 1013.26 1012.48 1011.92 1011.58 1011.28 1011.52 1011.64 1011.22 1010.39 1010.94 1010.86 1010.94 1011.23 1011.52 1011.78 1011.90 1011.87 1012.00 1011.55 1011.92 1011.99 1012.29 1011.90 1011.52 1011.36 1011.71 1011.62 1010.38 1010.18 1008.83 1008.25 1007.04 1007.12 1007.40 1007.85 1008.17 1008.54 1009.21 1009.75
1013.07 1012.95 1013.17 1012.64 1012.15 1012.55 1012.56 1011.53 1011.17 1010.53 1011.01 1011.32 1011.11 1010.49 1010.76 1010.68 1010.69 1011.12 1011.55 1011.81 1011.55 1012.23 1012.05 1011.90 1011.74 1012.06 1012.07 1012.19 1012.10 1011.60 1010.79 1010.92 1010.79 1010.45 1009.62 1008.65 1007.28 1006.43 1006.06 1006.75 1007.05 1007.47 1008.30 1008.67 1008.95
1012.57 1012.57 1012.49 1011.77 1011.84 1011.72 1010.76 1009.90 1009.98 1010.60 1010.42 1010.05 1010.57 1011.18 1011.08 1010.72 1011.04 1011.77 1012.00 1011.75 1011.21 1011.28 1011.63 1011.73 1011.74 1012.16 1012.23 1012.24 1011.77 1010.41 1009.17 1009.58 1009.43 1009.06 1008.29 1007.91 1005.24 1005.49 1005.55 1005.99 1006.13 1006.57 1007.06 1007.70 1008.07
Wind_Speed
3 4 4 5 5 6 6 8 8 8 7 8 9 10 9 10 10 6 5 4 5 10 8 6 5 4 4 2 3 4 6 7 4 4 3 3 5 5 4 8 6 8 7 5 6
3 4 4 5 5 6 5 6 9 9 9 8 8 10 10 8 7 8 6 4 7 6 7 6 5 5 4 2 3 6 6 6 7 5 5 2 7 5 5 9 12 11 11 6 7
2 5 5 4 6 5 6 7 7 9 9 8 8 8 9 9 4 2 2 6 5 6 5 4 2 3 5 3 3 2 6 8 3 5 5 6 7 9 8 10 13 11 8 12 10
4 5 6 6 6 6 6 7 8 8 8 9 9 7 7 7 2 4 4 6 3 4 5 4 5 4 4 5 3 5 2 4 4 3 4 5 8 9 13 16 2 6 2 5 9
5 6 6 7 8 9 7 7 7 8 8 9 8 7 4 6 4 4 3 1 4 4 6 6 7 4 5 2 4 7 3 2 2 4 6 7 11 14 19 15 12 6 6 8 8
6 7 7 7 8 9 9 9 9 8 8 7 7 7 4 7 3 1 1 1 3 6 5 6 4 2 1 2 6 2 4 5 3 6 6 7 9 2 3 2 9 11 14 12 10
7 8 8 8 8 9 10 11 11 11 8 7 7 4 4 5 1 1 2 0 1 3 4 2 2 5 2 2 1 4 6 6 7 4 4 6 11 13 12 5 6 6 10 12 9
8 7 8 8 8 10 11 12 12 11 7 4 4 4 6 3 2 2 2 4 2 1 2 3 2 4 2 2 4 6 4 4 6 3 3 5 9 5 3 8 8 10 10 10 11
9 8 8 8 8 9 11 12 11 6 5 2 4 5 4 2 3 1 1 4 5 4 4 3 1 0 3 5 5 7 5 6 3 2 3 7 9 6 5 6 10 10 11 10 9
10 10 8 7 7 9 13 9 2 3 4 3 2 6 4 2 3 2 1 3 1 6 4 4 4 5 6 7 4 3 5 4 7 4 6 12 21 18 12 11 15 15 14 14 8
11 10 8 8 5 6 9 2 4 5 6 7 2 3 2 2 3 2 1 5 5 5 6 3 7 10 8 6 5 5 6 9 8 4 5 10 17 16 14 8 9 11 13 13 10
12 11 9 8 5 3 5 4 4 3 8 12 5 4 2 2 4 5 3 7 7 7 4 4 10 3 4 1 3 4 6 9 5 1 4 11 22 18 2 1 2 4 4 8 9
14 12 10 6 2 3 6 6 3 3 6 5 6 7 4 8 4 11 9 3 6 8 10 9 3 3 3 4 5 6 6 5 4 9 6 12 12 6 5 3 2 3 1 5 8
15 13 11 8 2 2 4 1 1 2 5 7 7 5 6 6 5 3 3 3 4 11 6 6 5 4 4 6 5 8 2 1 3 6 4 5 8 6 6 5 5 5 7 7 8
13 16 15 13 2 3 2 2 2 3 6 6 4 2 4 8 7 3 1 3 7 7 5 3 6 5 6 1 3 3 1 1 2 2 4 5 4 2 5 8 8 7 5 5 6
8 13 16 4 0 2 4 3 2 2 13 3 4 6 9 5 4 5 4 3 3 4 2 4 1 1 3 4 2 7 2 1 1 1 1 4 3 6 5 5 9 7 6 5 6
12 8 12 7 4 5 3 1 3 8 3 3 4 7 12 8 6 8 11 10 8 6 6 2 4 2 3 4 3 4 4 3 3 2 2 4 3 11 3 5 4 8 7 6 5
10 3 6 3 5 5 2 4 8 4 7 3 2 5 8 10 6 9 9 10 15 3 4 9 5 10 9 3 2 8 3 3 4 3 2 3 7 2 2 2 3 3 3 4 5
11 1 3 5 9 4 4 8 10 5 3 8 6 4 8 6 3 9 11 9 9 14 8 7 2 3 0 1 1 5 5 2 7 2 3 3 6 10 5 6 7 7 7 8 7
4 1 3 11 8 9 5 14 8 4 4 5 7 10 10 10 9 12 14 9 8 16 2 5 4 1 3 2 1 4 1 4 0 3 4 3 5 6 4 10 10 10 9 8 5
3 3 2 11 3 7 6 9 11 8 4 6 3 4 8 8 13 9 5 4 13 9 13 4 2 3 2 9 9 6 4 2 1 1 3 4 3 3 1 8 11 9 7 5 5
3 3 4 8 4 3 4 7 8 9 6 5 4 5 7 7 10 11 11 6 4 11 11 7 4 5 4 1 3 4 3 7 4 5 0 2 8 2 2 2 2 5 5 5 4
3 2 1 2 5 4 4 12 8 9 13 11 10 5 1 4 6 14 8 4 3 6 8 10 5 5 1 1 0 7 7 5 3 2 7 5 5 1 2 4 7 8 7 6 6
2 4 2 2 1 3 5 6 8 10 9 9 10 16 9 4 5 4 4 2 1 0 4 2 3 5 10 1 8 8 10 15 5 4 6 9 3 4 5 6 5 5 4 5 5
5 6 4 7 9 6 9 6 12 6 13 10 6 19 22 13 1 4 1 2 1 2 0 3 3 3 2 2 4 3 11 20 13 9 8 4 12 10 7 8 7 6 4 5 6
4 4 1 2 7 14 11 7 11 16 9 6 15 16 20 15 17 2 2 1 2 2 4 3 1 1 3 0 1 5 7 16 15 2 7 1 12 13 11 8 4 6 7 8 8
4 1 2 8 8 8 16 24 17 8 9 17 17 14 11 24 15 3 6 6 6 7 9 5 5 3 4 1 2 13 14 19 12 8 9 9 17 7 5 9 7 7 7 8 8
Wind_Direction
332 343 351 351 345 359 358 337 332 326 319 316 317 320 326 326 305 230 240 26 317 320 294 270 230 200 229 220 284 273 253 263 274 278 49 139 242 156 342 263 207 199 264 59 127
318 318 336 337 338 348 1 349 334 324 315 312 313 318 320 327 283 257 88 330 311 304 258 224 194 178 190 216 226 256 267 316 16 349 309 259 261 284 258 233 244 243 234 186 190
273 297 313 328 322 341 352 350 337 324 315 306 308 318 319 305 271 128 38 318 301 270 266 275 243 220 228 220 194 166 274 15 341 327 323 304 274 246 270 268 253 256 232 204 214
279 289 304 310 317 324 350 338 335 327 315 305 308 316 319 266 225 118 345 315 285 241 235 207 212 208 241 220 201 256 266 294 355 343 284 272 322 264 246 262 46 307 258 205 210
260 273 287 301 316 319 328 326 326 322 310 306 306 317 273 226 259 119 329 275 185 187 228 216 220 223 234 222 235 241 291 267 293 267 267 280 264 272 272 265 257 233 228 235 234
251 258 274 292 306 313 320 319 317 314 303 300 301 308 245 247 75 46 9 187 223 207 191 222 268 238 193 230 246 358 258 270 243 262 254 272 270 314 234 355 242 254 232 237 239
238 254 266 278 295 309 313 315 315 308 293 296 298 275 242 269 307 348 168 101 273 249 194 204 202 238 156 192 185 280 274 220 225 244 261 280 263 230 258 211 242 233 228 237 240
220 238 254 272 290 304 310 313 311 305 279 283 281 264 268 89 330 220 179 124 144 100 107 116 183 117 300 117 197 251 251 273 127 208 154 267 289 114 145 218 240 230 216 221 227
216 227 242 262 282 298 304 311 303 284 267 239 240 260 255 130 209 124 265 152 128 108 92 128 200 160 176 234 223 215 281 245 193 172 293 234 289 110 188 224 251 235 230 223 243
222 223 232 248 271 302 306 302 302 222 197 199 242 259 162 171 121 171 99 153 143 141 142 206 211 225 219 220 254 247 253 220 271 109 254 262 268 275 273 246 257 253 253 242 235
217 222 228 237 261 300 311 245 213 199 223 231 153 296 147 93 162 186 152 161 158 216 206 187 227 217 236 240 307 285 277 276 291 89 288 274 286 289 293 303 273 266 250 244 226
212 215 210 231 242 288 289 256 342 18 292 218 226 229 173 231 156 180 213 194 189 201 161 195 236 58 85 173 242 252 271 278 276 51 292 308 294 294 225 253 287 317 187 190 169
205 206 204 200 238 234 249 259 3 334 259 183 202 211 179 180 214 175 186 194 208 201 204 231 50 123 198 196 210 234 256 299 294 318 243 301 269 173 166 200 187 213 153 174 182
194 195 185 141 225 153 233 11 321 301 277 218 203 183 163 190 214 86 217 236 183 214 196 250 120 184 202 235 215 260 79 164 299 337 315 21 294 201 167 187 199 193 211 191 192
206 194 171 165 67 199 52 109 139 265 282 117 150 53 156 206 127 135 48 187 195 157 182 174 175 168 217 255 194 52 142 61 316 337 319 161 252 163 164 207 184 195 194 204 210
32 202 156 161 175 321 121 119 229 82 242 166 134 170 160 187 134 118 159 67 38 135 86 71 31 280 35 103 58 124 193 163 161 267 289 115 261 279 177 206 160 173 201 193 197
12 169 154 153 184 132 176 103 65 221 336 186 193 181 199 174 165 181 177 180 166 133 200 137 176 141 195 152 123 216 233 324 334 14 247 130 239 263 218 147 155 181 193 196 200
332 21 173 177 128 134 238 98 210 232 228 110 123 169 194 159 195 179 173 206 226 235 138 166 241 181 167 267 214 189 264 191 238 273 3 147 238 260 31 108 156 194 196 205 221
322 226 157 169 144 105 151 193 217 190 130 164 143 177 210 209 202 180 205 218 210 192 181 161 160 110 35 316 278 172 215 29 104 104 278 228 244 237 178 195 188 206 211 225 227
321 287 211 144 163 132 157 213 227 205 146 163 227 194 189 190 178 198 190 207 212 186 164 196 112 346 95 241 189 271 124 124 337 168 252 248 270 266 174 211 194 201 212 219 223
254 241 66 137 123 158 190 223 234 219 175 191 241 248 239 186 205 199 221 212 214 188 185 122 142 112 154 206 180 167 191 210 79 262 222 288 258 87 213 216 193 197 195 193 215
256 228 128 166 126 235 197 195 217 238 181 268 259 251 234 211 205 213 222 236 103 156 181 171 100 158 186 33 325 314 219 195 198 191 204 3 269 185 138 178 213 185 189 210 226
234 199 50 264 197 200 262 242 240 225 195 225 234 228 11 252 233 208 201 30 149 177 170 176 190 120 163 194 165 225 197 221 105 89 195 161 251 149 213 211 225 224 227 214 228
201 204 194 199 94 186 196 218 223 229 237 204 253 250 261 238 218 306 237 72 25 3 358 209 165 198 236 160 136 185 199 190 177 152 166 228 277 229 257 233 217 236 218 235 269
207 224 191 203 205 184 204 214 210 222 204 224 234 237 218 236 49 231 199 152 125 195 295 255 214 184 167 312 301 214 175 184 192 197 179 227 215 239 242 245 218 223 238 216 231
194 189 206 348 234 197 212 196 226 214 180 194 227 220 223 234 225 254 144 254 253 168 198 215 234 108 267 156 286 273 209 194 207 340 302 31 272 218 254 256 198 237 237 234 236
230 132 244 210 205 203 218 228 235 222 231 220 216 237 230 226 229 62 305 284 234 181 195 184 157 129 249 351 271 257 186 189 194 205 197 203 239 159 211 226 226 244 227 231 248